Volver al catálogo

STARLINK-5859

ActivoComunicacionesVLEO
NORAD 55915·PAYLOAD·🇺🇸 United States

Lanzado Mar 17, 2023 desde Vandenberg Space Force Base

Loading…

Próximos Pases (próximas 24 horas)

TLE

ActualizadoSource: CelesTrak SupGP

Época: Sep 15, 2026, 03:02 UTC

1 55915C 23037B   26258.12687500 -.00106650  00000+0 -89364-2 0  2581
2 55915  70.0018 186.8671 0003094 270.6289  22.8883 14.98391321    13

Sigue STARLINK-5859 en tiempo real con AllMySat

Download on the App Store